Wetterdaten: aktuell Samstag, 01.08.2020 03:12
Datum Zeit Temp. 2m Feuchte 2m Luftdruck Regen Wind Richtung Richtung ET Taupunkt Windchill Windben
01.08.2020 03:12 21,4 C 58 % 1015,1 hPa 0,0 l/m 14,5 km/h (3 Bft) O-NO 67 0,000 mm 12,8 C 19,1 C 17,7 km/h (3 Bft)
01.08.2020 03:11 21,4 C 58 % 1015,0 hPa 0,0 l/m 16,1 km/h (3 Bft) O-NO 67 0,000 mm 12,8 C 18,7 C 19,3 km/h (3 Bft)
01.08.2020 03:10 21,4 C 58 % 1015,1 hPa 0,0 l/m 16,1 km/h (3 Bft) O-NO 67 0,000 mm 12,8 C 18,7 C 19,3 km/h (3 Bft)
01.08.2020 03:09 21,4 C 58 % 1015,0 hPa 0,0 l/m 14,5 km/h (3 Bft) O-NO 67 0,000 mm 12,8 C 19,1 C 17,7 km/h (3 Bft)
01.08.2020 03:08 21,4 C 58 % 1015,1 hPa 0,0 l/m 14,5 km/h (3 Bft) O-NO 67 0,000 mm 12,8 C 19,1 C 17,7 km/h (3 Bft)
01.08.2020 03:07 21,4 C 59 % 1015,1 hPa 0,0 l/m 16,1 km/h (3 Bft) O-NO 67 0,000 mm 13,0 C 18,7 C 20,9 km/h (4 Bft)
01.08.2020 03:06 21,4 C 58 % 1015,1 hPa 0,0 l/m 14,5 km/h (3 Bft) O-NO 67 0,000 mm 12,8 C 19,1 C 19,3 km/h (3 Bft)
01.08.2020 03:05 21,4 C 58 % 1015,1 hPa 0,0 l/m 17,7 km/h (3 Bft) O-NO 67 0,000 mm 12,8 C 18,4 C 19,3 km/h (3 Bft)
01.08.2020 03:04 21,4 C 58 % 1015,1 hPa 0,0 l/m 16,1 km/h (3 Bft) O-NO 67 0,000 mm 12,8 C 18,7 C 19,3 km/h (3 Bft)
01.08.2020 03:03 21,4 C 59 % 1015,1 hPa 0,0 l/m 14,5 km/h (3 Bft) O-NO 67 0,000 mm 13,0 C 19,1 C 17,7 km/h (3 Bft)
01.08.2020 03:02 21,4 C 59 % 1015,1 hPa 0,0 l/m 17,7 km/h (3 Bft) O-NO 67 0,000 mm 13,0 C 18,4 C 19,3 km/h (3 Bft)
01.08.2020 03:01 21,4 C 59 % 1015,1 hPa 0,0 l/m 16,1 km/h (3 Bft) O-NO 67 0,000 mm 13,0 C 18,7 C 19,3 km/h (3 Bft)
01.08.2020 03:00 21,4 C 59 % 1015,1 hPa 0,0 l/m 17,7 km/h (3 Bft) O-NO 67 0,000 mm 13,0 C 18,4 C 19,3 km/h (3 Bft)
01.08.2020 02:59 21,4 C 59 % 1015,1 hPa 0,0 l/m 17,7 km/h (3 Bft) O-NO 67 0,000 mm 13,0 C 18,4 C 20,9 km/h (4 Bft)
01.08.2020 02:58 21,4 C 59 % 1015,1 hPa 0,0 l/m 17,7 km/h (3 Bft) O-NO 67 0,000 mm 13,0 C 18,4 C 19,3 km/h (3 Bft)
01.08.2020 02:57 21,4 C 59 % 1015,1 hPa 0,0 l/m 16,1 km/h (3 Bft) O-NO 67 0,000 mm 13,0 C 18,7 C 19,3 km/h (3 Bft)
01.08.2020 02:56 21,4 C 59 % 1015,1 hPa 0,0 l/m 14,5 km/h (3 Bft) O-NO 67 0,000 mm 13,0 C 19,1 C 17,7 km/h (3 Bft)
01.08.2020 02:55 21,5 C 59 % 1015,1 hPa 0,0 l/m 16,1 km/h (3 Bft) O-NO 67 0,000 mm 13,1 C 18,8 C 19,3 km/h (3 Bft)
01.08.2020 02:54 21,5 C 59 % 1015,1 hPa 0,0 l/m 16,1 km/h (3 Bft) O-NO 67 0,000 mm 13,1 C 18,8 C 19,3 km/h (3 Bft)
01.08.2020 02:53 21,5 C 58 % 1015,1 hPa 0,0 l/m 14,5 km/h (3 Bft) O-NO 67 0,000 mm 12,9 C 19,2 C 16,1 km/h (3 Bft)
01.08.2020 02:52 21,5 C 58 % 1015,0 hPa 0,0 l/m 16,1 km/h (3 Bft) O-NO 67 0,000 mm 12,9 C 18,8 C 17,7 km/h (3 Bft)
01.08.2020 02:51 21,5 C 58 % 1015,2 hPa 0,0 l/m 16,1 km/h (3 Bft) O-NO 67 0,000 mm 12,9 C 18,8 C 19,3 km/h (3 Bft)
01.08.2020 02:50 21,6 C 58 % 1015,1 hPa 0,0 l/m 16,1 km/h (3 Bft) O-NO 67 0,000 mm 13,0 C 19,0 C 19,3 km/h (3 Bft)
01.08.2020 02:49 21,6 C 58 % 1015,1 hPa 0,0 l/m 17,7 km/h (3 Bft) O-NO 67 0,000 mm 13,0 C 18,7 C 19,3 km/h (3 Bft)
01.08.2020 02:48 21,6 C 58 % 1015,1 hPa 0,0 l/m 17,7 km/h (3 Bft) O-NO 67 0,000 mm 13,0 C 18,7 C 20,9 km/h (4 Bft)
01.08.2020 02:47 21,5 C 58 % 1015,0 hPa 0,0 l/m 19,3 km/h (3 Bft) O-NO 67 0,000 mm 12,9 C 18,3 C 20,9 km/h (4 Bft)
01.08.2020 02:46 21,5 C 58 % 1015,1 hPa 0,0 l/m 19,3 km/h (3 Bft) O-NO 67 0,000 mm 12,9 C 18,3 C 22,5 km/h (4 Bft)
01.08.2020 02:45 21,5 C 59 % 1015,1 hPa 0,0 l/m 19,3 km/h (3 Bft) O-NO 67 0,000 mm 13,1 C 18,3 C 22,5 km/h (4 Bft)
01.08.2020 02:44 21,5 C 59 % 1015,1 hPa 0,0 l/m 19,3 km/h (3 Bft) O-NO 67 0,000 mm 13,1 C 18,3 C 20,9 km/h (4 Bft)
01.08.2020 02:43 21,5 C 59 % 1015,1 hPa 0,0 l/m 19,3 km/h (3 Bft) O-NO 67 0,000 mm 13,1 C 18,3 C 22,5 km/h (4 Bft)
01.08.2020 02:42 21,5 C 59 % 1015,1 hPa 0,0 l/m 19,3 km/h (3 Bft) O-NO 67 0,000 mm 13,1 C 18,3 C 22,5 km/h (4 Bft)
01.08.2020 02:41 21,5 C 59 % 1015,0 hPa 0,0 l/m 19,3 km/h (3 Bft) O-NO 67 0,000 mm 13,1 C 18,3 C 22,5 km/h (4 Bft)
01.08.2020 02:40 21,4 C 59 % 1015,0 hPa 0,0 l/m 20,9 km/h (4 Bft) O-NO 67 0,000 mm 13,0 C 17,9 C 22,5 km/h (4 Bft)
01.08.2020 02:39 21,4 C 59 % 1015,1 hPa 0,0 l/m 19,3 km/h (3 Bft) O-NO 67 0,000 mm 13,0 C 18,1 C 20,9 km/h (4 Bft)
01.08.2020 02:38 21,4 C 59 % 1015,1 hPa 0,0 l/m 19,3 km/h (3 Bft) O-NO 67 0,000 mm 13,0 C 18,1 C 22,5 km/h (4 Bft)
01.08.2020 02:37 21,5 C 59 % 1015,1 hPa 0,0 l/m 17,7 km/h (3 Bft) O-NO 67 0,000 mm 13,1 C 18,5 C 20,9 km/h (4 Bft)
01.08.2020 02:36 21,5 C 59 % 1015,1 hPa 0,0 l/m 17,7 km/h (3 Bft) O-NO 67 0,000 mm 13,1 C 18,5 C 19,3 km/h (3 Bft)
01.08.2020 02:35 21,5 C 59 % 1015,2 hPa 0,0 l/m 19,3 km/h (3 Bft) O-NO 67 0,000 mm 13,1 C 18,3 C 20,9 km/h (4 Bft)
01.08.2020 02:34 21,5 C 59 % 1015,2 hPa 0,0 l/m 17,7 km/h (3 Bft) O-NO 67 0,000 mm 13,1 C 18,5 C 19,3 km/h (3 Bft)
01.08.2020 02:33 21,5 C 59 % 1015,0 hPa 0,0 l/m 17,7 km/h (3 Bft) O-NO 67 0,000 mm 13,1 C 18,5 C 20,9 km/h (4 Bft)
01.08.2020 02:32 21,5 C 59 % 1015,2 hPa 0,0 l/m 17,7 km/h (3 Bft) O-NO 67 0,000 mm 13,1 C 18,5 C 19,3 km/h (3 Bft)
01.08.2020 02:31 21,6 C 58 % 1015,2 hPa 0,0 l/m 17,7 km/h (3 Bft) O-NO 67 0,000 mm 13,0 C 18,7 C 19,3 km/h (3 Bft)
01.08.2020 02:30 21,5 C 58 % 1015,2 hPa 0,0 l/m 17,7 km/h (3 Bft) O-NO 67 0,000 mm 12,9 C 18,5 C 19,3 km/h (3 Bft)
01.08.2020 02:29 21,5 C 58 % 1015,1 hPa 0,0 l/m 19,3 km/h (3 Bft) O-NO 67 0,000 mm 12,9 C 18,3 C 20,9 km/h (4 Bft)
01.08.2020 02:28 21,6 C 58 % 1015,2 hPa 0,0 l/m 17,7 km/h (3 Bft) O-NO 67 0,000 mm 13,0 C 18,7 C 20,9 km/h (4 Bft)
01.08.2020 02:27 21,6 C 58 % 1015,2 hPa 0,0 l/m 17,7 km/h (3 Bft) O-NO 67 0,000 mm 13,0 C 18,7 C 20,9 km/h (4 Bft)
01.08.2020 02:26 21,6 C 58 % 1015,1 hPa 0,0 l/m 20,9 km/h (4 Bft) O-NO 67 0,000 mm 13,0 C 18,1 C 22,5 km/h (4 Bft)
01.08.2020 02:25 21,6 C 58 % 1015,2 hPa 0,0 l/m 19,3 km/h (3 Bft) O-NO 67 0,000 mm 13,0 C 18,4 C 20,9 km/h (4 Bft)
01.08.2020 02:24 21,6 C 58 % 1015,1 hPa 0,0 l/m 19,3 km/h (3 Bft) O-NO 67 0,000 mm 13,0 C 18,4 C 22,5 km/h (4 Bft)
01.08.2020 02:23 21,6 C 58 % 1015,1 hPa 0,0 l/m 17,7 km/h (3 Bft) O-NO 67 0,000 mm 13,0 C 18,7 C 20,9 km/h (4 Bft)
01.08.2020 02:22 21,6 C 58 % 1015,1 hPa 0,0 l/m 16,1 km/h (3 Bft) O-NO 67 0,000 mm 13,0 C 19,0 C 17,7 km/h (3 Bft)
01.08.2020 02:21 21,6 C 58 % 1015,1 hPa 0,0 l/m 17,7 km/h (3 Bft) O-NO 67 0,000 mm 13,0 C 18,7 C 19,3 km/h (3 Bft)
01.08.2020 02:20 21,6 C 58 % 1015,2 hPa 0,0 l/m 17,7 km/h (3 Bft) O-NO 67 0,000 mm 13,0 C 18,7 C 19,3 km/h (3 Bft)
01.08.2020 02:19 21,7 C 58 % 1015,1 hPa 0,0 l/m 16,1 km/h (3 Bft) O-NO 67 0,000 mm 13,1 C 19,1 C 20,9 km/h (4 Bft)
01.08.2020 02:18 21,7 C 58 % 1015,2 hPa 0,0 l/m 17,7 km/h (3 Bft) O-NO 67 0,000 mm 13,1 C 18,8 C 20,9 km/h (4 Bft)
01.08.2020 02:17 21,7 C 58 % 1015,2 hPa 0,0 l/m 16,1 km/h (3 Bft) O-NO 67 0,000 mm 13,1 C 19,1 C 20,9 km/h (4 Bft)
01.08.2020 02:16 21,8 C 58 % 1015,3 hPa 0,0 l/m 16,1 km/h (3 Bft) NO 45 0,000 mm 13,2 C 19,2 C 19,3 km/h (3 Bft)
01.08.2020 02:15 21,8 C 58 % 1015,3 hPa 0,0 l/m 16,1 km/h (3 Bft) O-NO 67 0,000 mm 13,2 C 19,2 C 17,7 km/h (3 Bft)
01.08.2020 02:14 21,8 C 58 % 1015,2 hPa 0,0 l/m 16,1 km/h (3 Bft) NO 45 0,000 mm 13,2 C 19,2 C 19,3 km/h (3 Bft)
01.08.2020 02:13 21,9 C 58 % 1015,3 hPa 0,0 l/m 14,5 km/h (3 Bft) O-NO 67 0,000 mm 13,3 C 19,7 C 17,7 km/h (3 Bft)
01.08.2020 02:12 21,9 C 57 % 1015,3 hPa 0,0 l/m 16,1 km/h (3 Bft) NO 45 0,000 mm 13,0 C 19,3 C 19,3 km/h (3 Bft)
01.08.2020 02:11 21,9 C 57 % 1015,3 hPa 0,0 l/m 14,5 km/h (3 Bft) NO 45 0,000 mm 13,0 C 19,7 C 17,7 km/h (3 Bft)
01.08.2020 02:10 22,0 C 57 % 1015,4 hPa 0,0 l/m 16,1 km/h (3 Bft) NO 45 0,000 mm 13,1 C 19,5 C 20,9 km/h (4 Bft)
01.08.2020 02:09 22,1 C 57 % 1015,3 hPa 0,0 l/m 12,9 km/h (3 Bft) NO 45 0,000 mm 13,2 C 20,2 C 17,7 km/h (3 Bft)
01.08.2020 02:08 22,1 C 57 % 1015,3 hPa 0,0 l/m 16,1 km/h (3 Bft) NO 45 0,000 mm 13,2 C 19,6 C 19,3 km/h (3 Bft)
01.08.2020 02:07 22,1 C 57 % 1015,3 hPa 0,0 l/m 16,1 km/h (3 Bft) NO 45 0,000 mm 13,2 C 19,6 C 19,3 km/h (3 Bft)
01.08.2020 02:06 22,2 C 57 % 1015,3 hPa 0,0 l/m 16,1 km/h (3 Bft) O-NO 67 0,000 mm 13,3 C 19,7 C 19,3 km/h (3 Bft)
01.08.2020 02:05 22,2 C 56 % 1015,3 hPa 0,0 l/m 17,7 km/h (3 Bft) O-NO 67 0,000 mm 13,0 C 19,4 C 20,9 km/h (4 Bft)
01.08.2020 02:04 22,3 C 56 % 1015,4 hPa 0,0 l/m 14,5 km/h (3 Bft) O-NO 67 0,000 mm 13,1 C 20,1 C 17,7 km/h (3 Bft)
01.08.2020 02:03 22,3 C 56 % 1015,4 hPa 0,0 l/m 16,1 km/h (3 Bft) O-NO 67 0,000 mm 13,1 C 19,8 C 17,7 km/h (3 Bft)
01.08.2020 02:02 22,3 C 56 % 1015,4 hPa 0,0 l/m 14,5 km/h (3 Bft) NO 45 0,000 mm 13,1 C 20,1 C 17,7 km/h (3 Bft)
01.08.2020 02:01 22,3 C 56 % 1015,4 hPa 0,0 l/m 16,1 km/h (3 Bft) O-NO 67 0,000 mm 13,1 C 19,8 C 17,7 km/h (3 Bft)
01.08.2020 02:00 22,4 C 56 % 1015,3 hPa 0,0 l/m 16,1 km/h (3 Bft) O-NO 67 0,000 mm 13,2 C 20,0 C 22,5 km/h (4 Bft)
01.08.2020 01:59 22,4 C 56 % 1015,4 hPa 0,0 l/m 17,7 km/h (3 Bft) O-NO 67 0,000 mm 13,2 C 19,7 C 19,3 km/h (3 Bft)
01.08.2020 01:58 22,4 C 56 % 1015,4 hPa 0,0 l/m 17,7 km/h (3 Bft) O-NO 67 0,000 mm 13,2 C 19,7 C 22,5 km/h (4 Bft)
01.08.2020 01:57 22,4 C 56 % 1015,4 hPa 0,0 l/m 17,7 km/h (3 Bft) O-NO 67 0,000 mm 13,2 C 19,7 C 19,3 km/h (3 Bft)
01.08.2020 01:56 22,4 C 56 % 1015,4 hPa 0,0 l/m 16,1 km/h (3 Bft) O-NO 67 0,000 mm 13,2 C 20,0 C 19,3 km/h (3 Bft)
01.08.2020 01:55 22,5 C 56 % 1015,5 hPa 0,0 l/m 14,5 km/h (3 Bft) O-NO 67 0,000 mm 13,3 C 20,4 C 16,1 km/h (3 Bft)
01.08.2020 01:54 22,5 C 56 % 1015,4 hPa 0,0 l/m 14,5 km/h (3 Bft) O-NO 67 0,000 mm 13,3 C 20,4 C 16,1 km/h (3 Bft)
01.08.2020 01:53 22,5 C 56 % 1015,4 hPa 0,0 l/m 14,5 km/h (3 Bft) O-NO 67 0,000 mm 13,3 C 20,4 C 17,7 km/h (3 Bft)
01.08.2020 01:52 22,6 C 55 % 1015,5 hPa 0,0 l/m 12,9 km/h (3 Bft) O-NO 67 0,000 mm 13,1 C 20,8 C 17,7 km/h (3 Bft)
01.08.2020 01:51 22,6 C 55 % 1015,4 hPa 0,0 l/m 12,9 km/h (3 Bft) NO 45 0,000 mm 13,1 C 20,8 C 17,7 km/h (3 Bft)
01.08.2020 01:50 22,6 C 55 % 1015,4 hPa 0,0 l/m 16,1 km/h (3 Bft) O-NO 67 0,000 mm 13,1 C 20,2 C 19,3 km/h (3 Bft)
01.08.2020 01:49 22,6 C 55 % 1015,4 hPa 0,0 l/m 16,1 km/h (3 Bft) O-NO 67 0,000 mm 13,1 C 20,2 C 19,3 km/h (3 Bft)
01.08.2020 01:48 22,6 C 55 % 1015,4 hPa 0,0 l/m 16,1 km/h (3 Bft) O-NO 67 0,000 mm 13,1 C 20,2 C 20,9 km/h (4 Bft)
01.08.2020 01:47 22,6 C 55 % 1015,4 hPa 0,0 l/m 16,1 km/h (3 Bft) O-NO 67 0,000 mm 13,1 C 20,2 C 20,9 km/h (4 Bft)
01.08.2020 01:46 22,6 C 55 % 1015,4 hPa 0,0 l/m 16,1 km/h (3 Bft) O-NO 67 0,000 mm 13,1 C 20,2 C 17,7 km/h (3 Bft)
01.08.2020 01:45 22,6 C 55 % 1015,4 hPa 0,0 l/m 14,5 km/h (3 Bft) O-NO 67 0,000 mm 13,1 C 20,5 C 17,7 km/h (3 Bft)
01.08.2020 01:44 22,6 C 55 % 1015,4 hPa 0,0 l/m 14,5 km/h (3 Bft) O-NO 67 0,000 mm 13,1 C 20,5 C 16,1 km/h (3 Bft)
01.08.2020 01:43 22,6 C 55 % 1015,4 hPa 0,0 l/m 14,5 km/h (3 Bft) O-NO 67 0,000 mm 13,1 C 20,5 C 16,1 km/h (3 Bft)
01.08.2020 01:42 22,6 C 55 % 1015,4 hPa 0,0 l/m 14,5 km/h (3 Bft) O-NO 67 0,000 mm 13,1 C 20,5 C 16,1 km/h (3 Bft)
01.08.2020 01:41 22,6 C 55 % 1015,3 hPa 0,0 l/m 11,3 km/h (2 Bft) O-NO 67 0,000 mm 13,1 C 21,2 C 16,1 km/h (3 Bft)
01.08.2020 01:40 22,6 C 55 % 1015,4 hPa 0,0 l/m 16,1 km/h (3 Bft) O-NO 67 0,000 mm 13,1 C 20,2 C 19,3 km/h (3 Bft)
01.08.2020 01:39 22,6 C 55 % 1015,3 hPa 0,0 l/m 16,1 km/h (3 Bft) O-NO 67 0,000 mm 13,1 C 20,2 C 19,3 km/h (3 Bft)
01.08.2020 01:38 22,6 C 55 % 1015,3 hPa 0,0 l/m 16,1 km/h (3 Bft) O-NO 67 0,000 mm 13,1 C 20,2 C 19,3 km/h (3 Bft)
01.08.2020 01:37 22,6 C 55 % 1015,3 hPa 0,0 l/m 14,5 km/h (3 Bft) O-NO 67 0,000 mm 13,1 C 20,5 C 16,1 km/h (3 Bft)
01.08.2020 01:36 22,7 C 55 % 1015,3 hPa 0,0 l/m 14,5 km/h (3 Bft) O-NO 67 0,000 mm 13,2 C 20,6 C 17,7 km/h (3 Bft)
01.08.2020 01:35 22,7 C 55 % 1015,3 hPa 0,0 l/m 14,5 km/h (3 Bft) O-NO 67 0,000 mm 13,2 C 20,6 C 16,1 km/h (3 Bft)
01.08.2020 01:34 22,7 C 55 % 1015,4 hPa 0,0 l/m 14,5 km/h (3 Bft) O-NO 67 0,000 mm 13,2 C 20,6 C 16,1 km/h (3 Bft)
01.08.2020 01:33 22,7 C 55 % 1015,4 hPa 0,0 l/m 14,5 km/h (3 Bft) NO 45 0,000 mm 13,2 C 20,6 C 17,7 km/h (3 Bft)
01.08.2020 01:32 22,7 C 55 % 1015,4 hPa 0,0 l/m 12,9 km/h (3 Bft) O-NO 67 0,000 mm 13,2 C 20,9 C 14,5 km/h (3 Bft)
01.08.2020 01:31 22,7 C 55 % 1015,4 hPa 0,0 l/m 14,5 km/h (3 Bft) O-NO 67 0,000 mm 13,2 C 20,6 C 16,1 km/h (3 Bft)
01.08.2020 01:30 22,7 C 54 % 1015,4 hPa 0,0 l/m 14,5 km/h (3 Bft) O-NO 67 0,000 mm 12,9 C 20,6 C 17,7 km/h (3 Bft)
01.08.2020 01:29 22,8 C 54 % 1015,4 hPa 0,0 l/m 14,5 km/h (3 Bft) O-NO 67 0,000 mm 13,0 C 20,7 C 16,1 km/h (3 Bft)
01.08.2020 01:28 22,8 C 54 % 1015,5 hPa 0,0 l/m 14,5 km/h (3 Bft) O-NO 67 0,000 mm 13,0 C 20,7 C 16,1 km/h (3 Bft)
01.08.2020 01:27 22,8 C 54 % 1015,4 hPa 0,0 l/m 16,1 km/h (3 Bft) O-NO 67 0,000 mm 13,0 C 20,4 C 17,7 km/h (3 Bft)
01.08.2020 01:26 22,8 C 54 % 1015,4 hPa 0,0 l/m 14,5 km/h (3 Bft) O-NO 67 0,000 mm 13,0 C 20,7 C 17,7 km/h (3 Bft)
01.08.2020 01:25 22,9 C 54 % 1015,4 hPa 0,0 l/m 12,9 km/h (3 Bft) O-NO 67 0,000 mm 13,1 C 21,2 C 16,1 km/h (3 Bft)
01.08.2020 01:24 22,9 C 54 % 1015,4 hPa 0,0 l/m 12,9 km/h (3 Bft) O-NO 67 0,000 mm 13,1 C 21,2 C 16,1 km/h (3 Bft)
01.08.2020 01:23 22,9 C 54 % 1015,5 hPa 0,0 l/m 12,9 km/h (3 Bft) O-NO 67 0,000 mm 13,1 C 21,2 C 14,5 km/h (3 Bft)
01.08.2020 01:22 22,9 C 54 % 1015,5 hPa 0,0 l/m 14,5 km/h (3 Bft) O-NO 67 0,000 mm 13,1 C 20,9 C 16,1 km/h (3 Bft)
01.08.2020 01:21 22,9 C 54 % 1015,5 hPa 0,0 l/m 11,3 km/h (2 Bft) O-NO 67 0,000 mm 13,1 C 21,5 C 14,5 km/h (3 Bft)
01.08.2020 01:20 22,9 C 54 % 1015,3 hPa 0,0 l/m 16,1 km/h (3 Bft) O-NO 67 0,000 mm 13,1 C 20,6 C 17,7 km/h (3 Bft)
01.08.2020 01:19 23,0 C 54 % 1015,4 hPa 0,0 l/m 12,9 km/h (3 Bft) O-NO 67 0,000 mm 13,2 C 21,3 C 16,1 km/h (3 Bft)
01.08.2020 01:18 23,0 C 54 % 1015,4 hPa 0,0 l/m 14,5 km/h (3 Bft) O-NO 67 0,000 mm 13,2 C 21,0 C 16,1 km/h (3 Bft)
01.08.2020 01:17 23,0 C 54 % 1015,5 hPa 0,0 l/m 11,3 km/h (2 Bft) O-NO 67 0,000 mm 13,2 C 21,6 C 14,5 km/h (3 Bft)
01.08.2020 01:16 23,0 C 54 % 1015,5 hPa 0,0 l/m 14,5 km/h (3 Bft) O-NO 67 0,000 mm 13,2 C 21,0 C 17,7 km/h (3 Bft)
01.08.2020 01:15 23,0 C 54 % 1015,4 hPa 0,0 l/m 12,9 km/h (3 Bft) O-NO 67 0,000 mm 13,2 C 21,3 C 17,7 km/h (3 Bft)
01.08.2020 01:14 23,0 C 54 % 1015,4 hPa 0,0 l/m 11,3 km/h (2 Bft) O-NO 67 0,000 mm 13,2 C 21,6 C 16,1 km/h (3 Bft)
01.08.2020 01:13 23,0 C 54 % 1015,5 hPa 0,0 l/m 12,9 km/h (3 Bft) O-NO 67 0,000 mm 13,2 C 21,3 C 16,1 km/h (3 Bft)
01.08.2020 01:12 23,0 C 54 % 1015,5 hPa 0,0 l/m 11,3 km/h (2 Bft) O-NO 67 0,000 mm 13,2 C 21,6 C 14,5 km/h (3 Bft)
01.08.2020 01:11 23,0 C 53 % 1015,5 hPa 0,0 l/m 12,9 km/h (3 Bft) O-NO 67 0,000 mm 12,9 C 21,3 C 14,5 km/h (3 Bft)
01.08.2020 01:10 22,9 C 53 % 1015,5 hPa 0,0 l/m 12,9 km/h (3 Bft) O-NO 67 0,000 mm 12,8 C 21,2 C 14,5 km/h (3 Bft)
01.08.2020 01:09 22,9 C 54 % 1015,5 hPa 0,0 l/m 12,9 km/h (3 Bft) O-NO 67 0,000 mm 13,1 C 21,2 C 16,1 km/h (3 Bft)
01.08.2020 01:08 22,9 C 53 % 1015,5 hPa 0,0 l/m 12,9 km/h (3 Bft) O-NO 67 0,000 mm 12,8 C 21,2 C 14,5 km/h (3 Bft)
01.08.2020 01:07 22,9 C 53 % 1015,5 hPa 0,0 l/m 11,3 km/h (2 Bft) O-NO 67 0,000 mm 12,8 C 21,5 C 16,1 km/h (3 Bft)
01.08.2020 01:06 22,9 C 53 % 1015,5 hPa 0,0 l/m 11,3 km/h (2 Bft) O-NO 67 0,000 mm 12,8 C 21,5 C 14,5 km/h (3 Bft)
01.08.2020 01:05 22,9 C 53 % 1015,5 hPa 0,0 l/m 11,3 km/h (2 Bft) O-NO 67 0,000 mm 12,8 C 21,5 C 14,5 km/h (3 Bft)
01.08.2020 01:04 22,9 C 53 % 1015,5 hPa 0,0 l/m 9,7 km/h (2 Bft) O-NO 67 0,000 mm 12,8 C 21,9 C 14,5 km/h (3 Bft)
01.08.2020 01:03 22,9 C 53 % 1015,5 hPa 0,0 l/m 9,7 km/h (2 Bft) O-NO 67 0,000 mm 12,8 C 21,9 C 12,9 km/h (3 Bft)
01.08.2020 01:02 22,9 C 53 % 1015,5 hPa 0,0 l/m 8,0 km/h (2 Bft) O-NO 67 0,000 mm 12,8 C 22,4 C 12,9 km/h (3 Bft)
01.08.2020 01:01 22,9 C 53 % 1015,5 hPa 0,0 l/m 9,7 km/h (2 Bft) O-NO 67 0,000 mm 12,8 C 21,9 C 12,9 km/h (3 Bft)
01.08.2020 01:00 22,9 C 53 % 1015,5 hPa 0,0 l/m 8,0 km/h (2 Bft) O-NO 67 0,000 mm 12,8 C 22,4 C 12,9 km/h (3 Bft)
01.08.2020 00:59 22,9 C 53 % 1015,5 hPa 0,0 l/m 11,3 km/h (2 Bft) O-NO 67 0,000 mm 12,8 C 21,5 C 14,5 km/h (3 Bft)
01.08.2020 00:58 23,0 C 53 % 1015,5 hPa 0,0 l/m 8,0 km/h (2 Bft) O-NO 67 0,000 mm 12,9 C 22,5 C 14,5 km/h (3 Bft)
01.08.2020 00:57 23,0 C 53 % 1015,5 hPa 0,0 l/m 9,7 km/h (2 Bft) O-NO 67 0,000 mm 12,9 C 22,0 C 14,5 km/h (3 Bft)
01.08.2020 00:56 23,1 C 53 % 1015,5 hPa 0,0 l/m 6,4 km/h (2 Bft) O-NO 67 0,000 mm 13,0 C 23,1 C 11,3 km/h (2 Bft)
01.08.2020 00:55 23,1 C 53 % 1015,4 hPa 0,0 l/m 9,7 km/h (2 Bft) O-NO 67 0,000 mm 13,0 C 22,1 C 12,9 km/h (3 Bft)
01.08.2020 00:54 23,1 C 52 % 1015,5 hPa 0,0 l/m 11,3 km/h (2 Bft) O-NO 67 0,000 mm 12,7 C 21,8 C 14,5 km/h (3 Bft)
01.08.2020 00:53 23,2 C 52 % 1015,5 hPa 0,0 l/m 9,7 km/h (2 Bft) O-NO 67 0,000 mm 12,8 C 22,3 C 12,9 km/h (3 Bft)
01.08.2020 00:52 23,2 C 52 % 1015,5 hPa 0,0 l/m 8,0 km/h (2 Bft) O-NO 67 0,000 mm 12,8 C 22,7 C 9,7 km/h (2 Bft)
01.08.2020 00:51 23,2 C 52 % 1015,5 hPa 0,0 l/m 9,7 km/h (2 Bft) O-NO 67 0,000 mm 12,8 C 22,3 C 12,9 km/h (3 Bft)
01.08.2020 00:50 23,2 C 52 % 1015,5 hPa 0,0 l/m 9,7 km/h (2 Bft) O-NO 67 0,000 mm 12,8 C 22,3 C 14,5 km/h (3 Bft)
01.08.2020 00:49 23,3 C 52 % 1015,6 hPa 0,0 l/m 8,0 km/h (2 Bft) O-NO 67 0,000 mm 12,9 C 22,8 C 14,5 km/h (3 Bft)
01.08.2020 00:48 23,3 C 52 % 1015,5 hPa 0,0 l/m 9,7 km/h (2 Bft) O-NO 67 0,000 mm 12,9 C 22,4 C 14,5 km/h (3 Bft)
01.08.2020 00:47 23,3 C 52 % 1015,5 hPa 0,0 l/m 11,3 km/h (2 Bft) O-NO 67 0,000 mm 12,9 C 22,0 C 14,5 km/h (3 Bft)
01.08.2020 00:46 23,3 C 52 % 1015,6 hPa 0,0 l/m 6,4 km/h (2 Bft) O-NO 67 0,000 mm 12,9 C 23,3 C 8,0 km/h (2 Bft)
01.08.2020 00:45 23,3 C 52 % 1015,5 hPa 0,0 l/m 6,4 km/h (2 Bft) O 90 0,000 mm 12,9 C 23,3 C 8,0 km/h (2 Bft)
01.08.2020 00:44 23,4 C 52 % 1015,5 hPa 0,0 l/m 4,8 km/h (1 Bft) O 90 0,000 mm 13,0 C 23,4 C 11,3 km/h (2 Bft)
01.08.2020 00:43 23,4 C 52 % 1015,5 hPa 0,0 l/m 4,8 km/h (1 Bft) O-NO 67 0,000 mm 13,0 C 23,4 C 8,0 km/h (2 Bft)
01.08.2020 00:42 23,4 C 52 % 1015,5 hPa 0,0 l/m 4,8 km/h (1 Bft) O-NO 67 0,000 mm 13,0 C 23,4 C 8,0 km/h (2 Bft)
01.08.2020 00:41 23,5 C 52 % 1015,5 hPa 0,0 l/m 1,6 km/h (1 Bft) O-NO 67 0,000 mm 13,1 C 23,5 C 3,2 km/h (1 Bft)
01.08.2020 00:40 23,6 C 52 % 1015,5 hPa 0,0 l/m 3,2 km/h (1 Bft) O-NO 67 0,000 mm 13,2 C 23,6 C 4,8 km/h (1 Bft)
01.08.2020 00:39 23,6 C 51 % 1015,5 hPa 0,0 l/m 3,2 km/h (1 Bft) O-NO 67 0,000 mm 12,9 C 23,6 C 4,8 km/h (1 Bft)
01.08.2020 00:38 23,6 C 51 % 1015,5 hPa 0,0 l/m 3,2 km/h (1 Bft) O-NO 67 0,000 mm 12,9 C 23,6 C 4,8 km/h (1 Bft)
01.08.2020 00:37 23,7 C 51 % 1015,5 hPa 0,0 l/m 3,2 km/h (1 Bft) O-NO 67 0,000 mm 13,0 C 23,7 C 12,9 km/h (3 Bft)
01.08.2020 00:36 23,7 C 51 % 1015,5 hPa 0,0 l/m 3,2 km/h (1 Bft) SO 135 0,000 mm 13,0 C 23,7 C 8,0 km/h (2 Bft)
01.08.2020 00:35 23,7 C 51 % 1015,5 hPa 0,0 l/m 4,8 km/h (1 Bft) O 90 0,000 mm 13,0 C 23,7 C 12,9 km/h (3 Bft)
01.08.2020 00:34 23,8 C 51 % 1015,5 hPa 0,0 l/m 3,2 km/h (1 Bft) O 90 0,000 mm 13,0 C 23,8 C 4,8 km/h (1 Bft)
01.08.2020 00:33 23,8 C 50 % 1015,6 hPa 0,0 l/m 1,6 km/h (1 Bft) O 90 0,000 mm 12,7 C 23,8 C 3,2 km/h (1 Bft)
01.08.2020 00:32 23,8 C 50 % 1015,6 hPa 0,0 l/m 1,6 km/h (1 Bft) O-NO 67 0,000 mm 12,7 C 23,8 C 4,8 km/h (1 Bft)
01.08.2020 00:31 23,9 C 50 % 1015,6 hPa 0,0 l/m 4,8 km/h (1 Bft) O 90 0,000 mm 12,8 C 23,9 C 8,0 km/h (2 Bft)
01.08.2020 00:30 23,9 C 50 % 1015,5 hPa 0,0 l/m 3,2 km/h (1 Bft) O 90 0,000 mm 12,8 C 23,9 C 6,4 km/h (2 Bft)
01.08.2020 00:29 23,9 C 50 % 1015,5 hPa 0,0 l/m 1,6 km/h (1 Bft) O 90 0,000 mm 12,8 C 23,9 C 3,2 km/h (1 Bft)
01.08.2020 00:28 24,0 C 50 % 1015,5 hPa 0,0 l/m 3,2 km/h (1 Bft) O-NO 67 0,000 mm 12,9 C 24,0 C 4,8 km/h (1 Bft)
01.08.2020 00:27 24,1 C 49 % 1015,5 hPa 0,0 l/m 3,2 km/h (1 Bft) O-SO 112 0,000 mm 12,7 C 24,1 C 6,4 km/h (2 Bft)
01.08.2020 00:26 24,1 C 49 % 1015,5 hPa 0,0 l/m 4,8 km/h (1 Bft) O 90 0,000 mm 12,7 C 24,1 C 8,0 km/h (2 Bft)
01.08.2020 00:25 24,2 C 49 % 1015,5 hPa 0,0 l/m 1,6 km/h (1 Bft) O 90 0,000 mm 12,8 C 24,2 C 3,2 km/h (1 Bft)
01.08.2020 00:24 24,2 C 49 % 1015,4 hPa 0,0 l/m 3,2 km/h (1 Bft) O 90 0,000 mm 12,8 C 24,2 C 4,8 km/h (1 Bft)
01.08.2020 00:23 24,2 C 49 % 1015,5 hPa 0,0 l/m 3,2 km/h (1 Bft) O 90 0,000 mm 12,8 C 24,2 C 6,4 km/h (2 Bft)
01.08.2020 00:22 24,3 C 49 % 1015,4 hPa 0,0 l/m 3,2 km/h (1 Bft) O 90 0,000 mm 12,9 C 24,3 C 6,4 km/h (2 Bft)
01.08.2020 00:21 24,3 C 49 % 1015,5 hPa 0,0 l/m 3,2 km/h (1 Bft) O 90 0,000 mm 12,9 C 24,3 C 6,4 km/h (2 Bft)
01.08.2020 00:20 24,3 C 48 % 1015,5 hPa 0,0 l/m 3,2 km/h (1 Bft) O-SO 112 0,000 mm 12,6 C 24,3 C 4,8 km/h (1 Bft)
01.08.2020 00:19 24,4 C 48 % 1015,5 hPa 0,0 l/m 3,2 km/h (1 Bft) O-SO 112 0,000 mm 12,7 C 24,4 C 4,8 km/h (1 Bft)
01.08.2020 00:18 24,4 C 48 % 1015,5 hPa 0,0 l/m 1,6 km/h (1 Bft) SO 135 0,000 mm 12,7 C 24,4 C 3,2 km/h (1 Bft)
01.08.2020 00:17 24,5 C 48 % 1015,5 hPa 0,0 l/m 1,6 km/h (1 Bft) SO 135 0,000 mm 12,8 C 24,5 C 3,2 km/h (1 Bft)
01.08.2020 00:16 24,6 C 48 % 1015,5 hPa 0,0 l/m 1,6 km/h (1 Bft) SO 135 0,000 mm 12,8 C 24,6 C 9,7 km/h (2 Bft)
01.08.2020 00:15 24,6 C 48 % 1015,5 hPa 0,0 l/m 4,8 km/h (1 Bft) O-SO 112 0,000 mm 12,8 C 24,6 C 9,7 km/h (2 Bft)
01.08.2020 00:14 24,6 C 47 % 1015,5 hPa 0,0 l/m 1,6 km/h (1 Bft) O-SO 112 0,000 mm 12,5 C 24,6 C 4,8 km/h (1 Bft)
01.08.2020 00:13 24,7 C 47 % 1015,5 hPa 0,0 l/m 1,6 km/h (1 Bft) O-SO 112 0,000 mm 12,6 C 24,7 C 4,8 km/h (1 Bft)
01.08.2020 00:12 24,7 C 47 % 1015,5 hPa 0,0 l/m 4,8 km/h (1 Bft) O 90 0,000 mm 12,6 C 24,7 C 6,4 km/h (2 Bft)
01.08.2020 00:11 24,8 C 47 % 1015,5 hPa 0,0 l/m 3,2 km/h (1 Bft) O-SO 112 0,000 mm 12,7 C 24,8 C 6,4 km/h (2 Bft)
01.08.2020 00:10 24,8 C 47 % 1015,5 hPa 0,0 l/m 4,8 km/h (1 Bft) O-SO 112 0,000 mm 12,7 C 24,8 C 6,4 km/h (2 Bft)
01.08.2020 00:09 24,8 C 47 % 1015,4 hPa 0,0 l/m 3,2 km/h (1 Bft) O 90 0,000 mm 12,7 C 24,8 C 6,4 km/h (2 Bft)
01.08.2020 00:08 24,9 C 46 % 1015,4 hPa 0,0 l/m 3,2 km/h (1 Bft) O 90 0,000 mm 12,5 C 24,9 C 6,4 km/h (2 Bft)
01.08.2020 00:07 24,9 C 46 % 1015,4 hPa 0,0 l/m 3,2 km/h (1 Bft) O-SO 112 0,000 mm 12,5 C 24,9 C 4,8 km/h (1 Bft)
01.08.2020 00:06 25,0 C 46 % 1015,4 hPa 0,0 l/m 3,2 km/h (1 Bft) O-SO 112 0,000 mm 12,6 C 25,0 C 4,8 km/h (1 Bft)
01.08.2020 00:05 25,1 C 46 % 1015,4 hPa 0,0 l/m 4,8 km/h (1 Bft) SO 135 0,000 mm 12,7 C 25,1 C 6,4 km/h (2 Bft)
01.08.2020 00:04 25,1 C 46 % 1015,4 hPa 0,0 l/m 1,6 km/h (1 Bft) N-NO 22 0,000 mm 12,7 C 25,1 C 6,4 km/h (2 Bft)
01.08.2020 00:03 25,2 C 45 % 1015,5 hPa 0,0 l/m 1,6 km/h (1 Bft) S-SO 157 0,000 mm 12,4 C 25,2 C 6,4 km/h (2 Bft)
01.08.2020 00:02 25,2 C 45 % 1015,5 hPa 0,0 l/m 1,6 km/h (1 Bft) S-SO 157 0,000 mm 12,4 C 25,2 C 1,6 km/h (1 Bft)
01.08.2020 00:01 25,2 C 45 % 1015,5 hPa 0,0 l/m 3,2 km/h (1 Bft) S-SO 157 0,000 mm 12,4 C 25,2 C 4,8 km/h (1 Bft)
_ Min-Zeit 02:38 00:01 02:33 - 00:02 - - - 00:01 02:40 00:02
Minimum _ 21,4 C 45 % 1015,0 hPa - 1,6 km/h (1 Bft) - - - 12,4 C 17,9 C 1,6 km/h (1 Bft)
_ Max-Zeit 00:01 02:32 00:31 00:01 02:26 - - 00:01 01:53 00:01 01:58
Maximum _ 25,2 C 59 % 1015,6 hPa 0,0 l/m 20,9 km/h
O-NO (4 Bft)
- - 0,000 mm 13,3 C 25,2 C 22,5 km/h
O-NO (4 Bft)
Durchschnitt _ 22,7 C 54 % 1015,3 hPa #0,0 l/m 12,2 km/h (2 Bft) O-NO - #0,000 mm 13,0 C 21,0 C 15,1 km/h (3 Bft)